Simultaneous Nadir Overpasses (SNOs) Predictions

Prediction of SNOs between GOES-14 and NPP Satellite Orbit:

Table of predicted SNOs for the next 14.0 days since TLE Epoch: 1/14/2023
Index Date Time (GOES-14) GOES-14 Lat,Lon NPP Lat,Lon Distance(km) Time Diff (sec)
1 01/14/2023 20:28:35 0.07,-104.20 -0.29,-105.81 183.63 80
2 01/15/2023 20:12:31 0.06,-104.21 0.74,-101.29 333.70 80
3 01/17/2023 08:31:41 -0.06,-104.61 0.40,-106.56 223.57 80
4 01/18/2023 08:12:57 -0.05,-104.61 -0.64,-102.04 293.42 80
5 01/19/2023 20:37:33 0.05,-104.23 -0.62,-107.33 352.41 80
6 01/20/2023 20:16:26 0.05,-104.23 0.37,-102.79 164.31 63
7 01/22/2023 08:37:59 -0.05,-104.62 0.71,-108.08 393.64 80
8 01/23/2023 08:21:55 -0.04,-104.63 -0.28,-103.54 123.39 80
9 01/25/2023 20:25:07 0.04,-104.26 0.04,-104.30 4.50 80
